When you browse on this site, cookies collect data to enhance your experience and personalize the content and advertising you see.
Visit our Privacy Policy to learn more. By continuing to use the site, you agree to this use of cookies and data.
  • In Austria
  • List of Countries
  • For 7 days
  • Water Temperature
  • Weather Map
  • News
  • Weather Widgets
  • user-avatar
    Login

    Hourly Weather Encamp

    Today, 26 May, Tuesday

    Time Temperature Precipitation Wind Pressure Humidity
    00:00 +8°C° 0 mm 1 mps 630 mmHg 87%
    01:00 +8°C° 0 mm 1 mps 629 mmHg 84%
    02:00 +8°C° 0 mm 1 mps 629 mmHg 82%
    03:00 +7°C° 0 mm 1 mps 629 mmHg 79%
    04:00 +8°C° 0 mm 1 mps 629 mmHg 76%
    05:00 +10°C° 0 mm 1 mps 630 mmHg 73%
    06:00 +11°C° 0 mm 1 mps 631 mmHg 65%
    07:00 +13°C° 0 mm 1 mps 631 mmHg 59%
    08:00 +15°C° 0 mm 1 mps 632 mmHg 52%
    09:00 +18°C° 0 mm 1 mps 633 mmHg 46%
    10:00 +19°C° 0 mm 1 mps 633 mmHg 44%
    11:00 +19°C° 0 mm 2 mps 634 mmHg 43%
    12:00 +20°C° 0 mm 2 mps 634 mmHg 41%
    13:00 +20°C° 0 mm 2 mps 633 mmHg 45%
    14:00 +19°C° 0 mm 2 mps 633 mmHg 49%
    15:00 +19°C° 0 mm 2 mps 633 mmHg 53%
    16:00 +18°C° 0.1 mm 2 mps 632 mmHg 63%
    17:00 +16°C° 0.1 mm 2 mps 631 mmHg 73%
    18:00 +15°C° 0.1 mm 1 mps 631 mmHg 83%
    19:00 +13°C° 0.1 mm 1 mps 630 mmHg 86%
    20:00 +12°C° 0.1 mm 1 mps 630 mmHg 89%
    21:00 +10°C° 0.1 mm 1 mps 630 mmHg 91%
    22:00 +10°C° 0 mm 1 mps 629 mmHg 86%
    23:00 +9°C° 0 mm 1 mps 629 mmHg 81%

    Tomorrow, 27 May, Wednesday

    Time Temperature Precipitation Wind Pressure Humidity
    00:00 +7°C° 0 mm 2 mps 629 mmHg 76%
    01:00 +7°C° 0 mm 2 mps 629 mmHg 71%
    02:00 +7°C° 0 mm 2 mps 628 mmHg 67%
    03:00 +6°C° 0 mm 2 mps 628 mmHg 63%
    04:00 +8°C° 0 mm 1 mps 629 mmHg 63%
    05:00 +9°C° 0 mm 1 mps 629 mmHg 63%
    06:00 +11°C° 0 mm 1 mps 630 mmHg 63%
    07:00 +13°C° 0 mm 1 mps 631 mmHg 55%
    08:00 +15°C° 0 mm 1 mps 632 mmHg 48%
    09:00 +19°C° 0 mm 1 mps 633 mmHg 40%
    10:00 +19°C° 0 mm 1 mps 633 mmHg 40%
    11:00 +19°C° 0 mm 2 mps 634 mmHg 39%
    12:00 +20°C° 0 mm 2 mps 634 mmHg 39%
    13:00 +19°C° 0.1 mm 2 mps 633 mmHg 46%
    14:00 +18°C° 0.1 mm 2 mps 633 mmHg 52%
    15:00 +17°C° 0.1 mm 2 mps 632 mmHg 59%
    16:00 +16°C° 0.2 mm 2 mps 632 mmHg 66%
    17:00 +15°C° 0.2 mm 1 mps 632 mmHg 72%
    18:00 +14°C° 0.2 mm 1 mps 631 mmHg 79%
    19:00 +13°C° 0 mm 1 mps 631 mmHg 83%
    20:00 +11°C° 0 mm 1 mps 631 mmHg 87%
    21:00 +10°C° 0 mm 1 mps 631 mmHg 92%
    22:00 +10°C° 0 mm 1 mps 630 mmHg 92%
    23:00 +9°C° 0 mm 1 mps 630 mmHg 92%

    Day after tomorrow, 28 May, Thursday

    Time Temperature Precipitation Wind Pressure Humidity
    00:00 +9°C° 0 mm 1 mps 630 mmHg 93%
    01:00 +9°C° 0 mm 1 mps 630 mmHg 93%
    02:00 +8°C° 0 mm 1 mps 629 mmHg 92%
    03:00 +8°C° 0 mm 1 mps 629 mmHg 92%
    04:00 +9°C° 0 mm 1 mps 629 mmHg 90%
    05:00 +10°C° 0 mm 1 mps 630 mmHg 87%
    06:00 +11°C° 0 mm 1 mps 630 mmHg 85%
    07:00 +13°C° 0 mm 1 mps 631 mmHg 74%
    08:00 +15°C° 0 mm 1 mps 632 mmHg 63%
    09:00 +18°C° 0 mm 1 mps 632 mmHg 52%
    10:00 +19°C° 0 mm 1 mps 632 mmHg 51%
    11:00 +18°C° 0 mm 2 mps 632 mmHg 50%
    12:00 +19°C° 0 mm 2 mps 632 mmHg 49%
    13:00 +18°C° 0.4 mm 2 mps 631 mmHg 56%
    14:00 +18°C° 0.4 mm 1 mps 630 mmHg 63%
    15:00 +16°C° 0.4 mm 1 mps 630 mmHg 70%
    16:00 +16°C° 0.4 mm 1 mps 629 mmHg 73%
    17:00 +15°C° 0.4 mm 1 mps 629 mmHg 76%
    18:00 +14°C° 0.4 mm 0 mps 629 mmHg 80%
    19:00 +13°C° 0 mm 1 mps 628 mmHg 84%
    20:00 +12°C° 0 mm 1 mps 628 mmHg 88%
    21:00 +10°C° 0 mm 1 mps 627 mmHg 93%
    22:00 +10°C° 0 mm 1 mps 627 mmHg 89%
    23:00 +9°C° 0 mm 1 mps 626 mmHg 85%

    29 May, Friday

    Time Temperature Precipitation Wind Pressure Humidity
    00:00 +9°C° 0 mm 1 mps 626 mmHg 82%
    01:00 +8°C° 0 mm 1 mps 626 mmHg 77%
    02:00 +8°C° 0 mm 1 mps 625 mmHg 72%
    03:00 +8°C° 0 mm 1 mps 625 mmHg 67%
    04:00 +9°C° 0 mm 1 mps 625 mmHg 65%
    05:00 +10°C° 0 mm 1 mps 626 mmHg 64%
    06:00 +11°C° 0 mm 1 mps 626 mmHg 63%
    07:00 +14°C° 0 mm 1 mps 627 mmHg 53%
    08:00 +16°C° 0 mm 1 mps 628 mmHg 44%
    09:00 +20°C° 0 mm 1 mps 629 mmHg 34%
    10:00 +21°C° 0 mm 1 mps 629 mmHg 33%
    11:00 +21°C° 0 mm 1 mps 629 mmHg 32%
    12:00 +21°C° 0 mm 2 mps 629 mmHg 31%
    13:00 +21°C° 0 mm 2 mps 629 mmHg 35%
    14:00 +21°C° 0 mm 2 mps 628 mmHg 38%
    15:00 +20°C° 0 mm 2 mps 628 mmHg 41%
    16:00 +20°C° 0.2 mm 1 mps 627 mmHg 51%
    17:00 +18°C° 0.2 mm 1 mps 626 mmHg 62%
    18:00 +16°C° 0.2 mm 1 mps 625 mmHg 72%
    19:00 +14°C° 0 mm 1 mps 625 mmHg 77%
    20:00 +13°C° 0 mm 1 mps 625 mmHg 82%
    21:00 +11°C° 0 mm 1 mps 624 mmHg 88%
    22:00 +11°C° 0 mm 1 mps 624 mmHg 87%
    23:00 +10°C° 0 mm 1 mps 624 mmHg 87%

    30 May, Saturday

    Time Temperature Precipitation Wind Pressure Humidity
    00:00 +10°C° 0 mm 1 mps 623 mmHg 87%
    01:00 +10°C° 0 mm 1 mps 623 mmHg 84%
    02:00 +9°C° 0 mm 1 mps 623 mmHg 81%
    03:00 +9°C° 0 mm 1 mps 623 mmHg 78%
    04:00 +10°C° 0 mm 1 mps 623 mmHg 76%
    05:00 +11°C° 0 mm 1 mps 624 mmHg 74%
    06:00 +12°C° 0 mm 1 mps 624 mmHg 72%
    07:00 +14°C° 0 mm 1 mps 625 mmHg 62%
    08:00 +16°C° 0 mm 1 mps 626 mmHg 51%
    09:00 +20°C° 0 mm 1 mps 627 mmHg 41%
    10:00 +20°C° 0 mm 1 mps 627 mmHg 40%
    11:00 +21°C° 0 mm 1 mps 628 mmHg 39%
    12:00 +21°C° 0 mm 2 mps 628 mmHg 37%
    13:00 +20°C° 0.1 mm 2 mps 628 mmHg 44%
    14:00 +19°C° 0.1 mm 2 mps 627 mmHg 51%
    15:00 +19°C° 0.1 mm 2 mps 627 mmHg 58%
    16:00 +18°C° 0.2 mm 2 mps 626 mmHg 65%
    17:00 +16°C° 0.2 mm 1 mps 626 mmHg 72%
    18:00 +15°C° 0.2 mm 1 mps 625 mmHg 79%
    19:00 +14°C° 0 mm 1 mps 625 mmHg 83%
    20:00 +12°C° 0 mm 1 mps 625 mmHg 88%
    21:00 +11°C° 0 mm 1 mps 625 mmHg 92%
    22:00 +11°C° 0 mm 1 mps 624 mmHg 92%
    23:00 +11°C° 0 mm 1 mps 624 mmHg 92%

    31 May, Sunday

    Time Temperature Precipitation Wind Pressure Humidity
    00:00 +10°C° 0 mm 1 mps 624 mmHg 91%
    01:00 +10°C° 0 mm 1 mps 624 mmHg 90%
    02:00 +10°C° 0 mm 1 mps 624 mmHg 89%
    03:00 +10°C° 0 mm 1 mps 624 mmHg 88%
    04:00 +11°C° 0 mm 1 mps 624 mmHg 85%
    05:00 +12°C° 0 mm 1 mps 624 mmHg 82%
    06:00 +13°C° 0 mm 1 mps 625 mmHg 79%
    07:00 +15°C° 0 mm 1 mps 626 mmHg 69%
    08:00 +18°C° 0 mm 1 mps 626 mmHg 58%
    09:00 +20°C° 0 mm 1 mps 627 mmHg 48%
    10:00 +21°C° 0 mm 1 mps 627 mmHg 45%
    11:00 +21°C° 0 mm 2 mps 627 mmHg 42%
    12:00 +23°C° 0 mm 2 mps 628 mmHg 39%
    13:00 +21°C° 0.2 mm 2 mps 627 mmHg 44%
    14:00 +20°C° 0.2 mm 2 mps 626 mmHg 50%
    15:00 +21°C° 0.2 mm 1 mps 626 mmHg 56%
    16:00 +19°C° 0.7 mm 1 mps 625 mmHg 63%
    17:00 +18°C° 0.7 mm 1 mps 625 mmHg 71%
    18:00 +16°C° 0.7 mm 1 mps 624 mmHg 79%
    19:00 +15°C° 0.1 mm 1 mps 624 mmHg 81%
    20:00 +14°C° 0.1 mm 1 mps 624 mmHg 83%
    21:00 +12°C° 0.1 mm 0 mps 624 mmHg 85%
    22:00 +13°C° 0.2 mm 1 mps 623 mmHg 85%
    23:00 +13°C° 0.2 mm 1 mps 623 mmHg 85%
    Show more